Location: Borowce
(50.8255°N, 19.6209°E)
Time: 18:08:54
(UTC+00:00)

CZ-2C R/B - Pass Details

Date: 19 May 2025
Orbit: 702 x 902 km, 98.2° (Epoch: 20 June)

Event Time Altitude Azimuth Distance (km) Brightness Sun altitude
Rises 23:21:44 0° 17° (NNE) 3,524 8.1 -18.5°
Reaches altitude 10° 23:24:14 10° 22° (NNE) 2,588 6.9 -18.5°
Maximum altitude 23:29:54 53° 99° (E) 1,106 3.8 -18.3°
Enters shadow 23:33:02 26° 164° (SSE) 1,696 4.3 -18.2°
